Regional Weather Roundup
Issued by NWS

Home | Current Version | Previous Version | Text Only | Print | Product List | Glossary Off
Versions: 1 2 3 4 5 6 7 8 9 10 11 12 13 14 15 16 17 18 19 20 21 22 23 24 25 26 27 28 29 30 31 32 33 34 35 36 37 38 39 40 41 42 43 44 45 46 47 48 49 50

000
ASUS45 KTFX 091810
RWRMT
MONTANA REGIONAL WEATHER ROUNDUP
NATIONAL WEATHER SERVICE GREAT FALLS MT
1100 AM MST TUE FEB 09 2016

NOTE: "FAIR" INDICATES FEW OR NO CLOUDS BELOW 12000 FEET WITH NO
SIGNIFICANT WEATHER AND/OR OBSTRUCTIONS TO VISIBILITY.

MTZ001>007-043-091900-
WEST OF THE DIVIDE

CITY           SKY/WX    TMP DP  RH WIND       PRES   REMARKS
KALISPELL      MOSUNNY   30  24  78 CALM      30.48F
MISSOULA       FOG       24  24 100 CALM      30.51F VSB 1/4
BUTTE          SUNNY     21  18  88 SE5       30.46F
MULLAN PASS    SUNNY     43  30  60 S5        30.42F
ANACONDA         N/A     39  28  65 SE10      30.44F
DEER LODGE       N/A     34  28  80 CALM      30.47F
HAMILTON         N/A     37  30  75 CALM      30.46F
LIBBY            N/A     30  27  86 CALM      30.51F
PLAINS           N/A     32  28  85 CALM      30.46F
$$

MTZ008-052>055-091900-
SOUTHWEST MONTANA

CITY           SKY/WX    TMP DP  RH WIND       PRES   REMARKS
BOZEMAN        CLOUDY    27  23  85 CALM      30.45F
DILLON         SUNNY     36  26  67 S7        30.46F WCI  30
ENNIS          SUNNY     41  27  56 S12       30.52S
TWIN BRIDGES     N/A     33  23  67 SE5       30.40S
$$

MTZ009-010-012-014-046-048-049-054-091900-
EAST SLOPES AND CENTRAL MONTANA

CITY           SKY/WX    TMP DP  RH WIND       PRES   REMARKS
CUT BANK       SUNNY     57  27  31 W14       30.23F
GREAT FALLS    SUNNY     56  29  35 SW21      30.28F
MALMSTROM AFB  SUNNY     55  28  36 SW21G28   30.28F
HELENA         SUNNY     39  31  72 CALM      30.42F
CHOTEAU          N/A     64  18  16 SW10      30.26F
CONRAD           N/A     57  31  37 S2        30.24S
$$

MTZ011-013-016-021-045-047-050-051-091900-
NORTH CENTRAL MONTANA

CITY           SKY/WX    TMP DP  RH WIND       PRES   REMARKS
HAVRE          CLOUDY    47  30  51 SW20      30.23F
LEWISTOWN      SUNNY     46  28  49 W8        30.29S
N BAR RANCH      N/A     55  19  24 NW16G23   30.28S
CHINOOK          N/A     48  28  46 W9G16     30.22F
$$

MTZ017>020-022>027-061-062-091900-
NORTHEAST MONTANA

CITY           SKY/WX    TMP DP  RH WIND       PRES   REMARKS
GLASGOW        SUNNY     38  30  73 SW5       30.21F
JORDAN           N/A     44  33  65 W9        30.21F
SIDNEY         CLOUDY    37  23  56 NW8       30.22S WCI  31
WOLF POINT     CLOUDY    38  30  73 SW5       30.22F
PLENTYWOOD       N/A     32  23  69 NW7       30.21R WCI  26
POPLAR           N/A     36  28  75 SW6       30.23S WCI  31
SCOBEY           N/A     36  19  50 W3        30.16F
$$

MTZ028>42-056>058-091900-
SOUTHCENTRAL AND SOUTHEAST MONTANA

CITY           SKY/WX    TMP DP  RH WIND       PRES   REMARKS
BAKER          CLOUDY    40  27  59 W8        30.22F
BILLINGS       MOSUNNY   48  25  40 SW17      30.28F
LIVINGSTON     SUNNY     50  21  32 SW24G33   30.38S
MILES CITY     CLOUDY    42  31  64 SW8       30.23F
EKALAKA          N/A     40  27  60 W6        30.18S
FORSYTH          N/A     45  30  57 W9        30.24F
LAUREL           N/A     48  23  37 S13       30.26S
ROUNDUP          N/A     58  26  29 W13       30.15F
$$

REGIONAL REPORTS...DAKOTAS

CITY           SKY/WX    TMP DP  RH WIND       PRES   REMARKS
WILLISTON      CLOUDY    33  23  66 N7        30.21F WCI  27
MINOT          MOSUNNY   35  15  44 W8        30.20S WCI  29
DICKINSON      CLOUDY    35  21  56 NW16      30.16S WCI  25
BEACH          CLOUDY    37  27  65 NW13      30.22F WCI  29
CROSBY         PTSUNNY   30  25  80 N5        30.24R
TIOGA            N/A     28  25  86 NW5       30.24R
WATFORD CITY   PTSUNNY   32  23  69 NW6       30.20F WCI  26
BISMARCK       CLOUDY    34  10  37 SW9       30.23F WCI  27
GRAND FORKS    CLOUDY    11   3  70 N15       30.31S WCI  -5
FARGO          CLOUDY    13   5  70 N15       30.29F WCI  -3
BUFFALO SD       N/A     44  29  55 NW22      30.13S
RAPID CITY     CLOUDY    47  30  51 N17       30.19F
$$

REGIONAL REPORTS...WYOMING/IDAHO/WASHINGTON

CITY           SKY/WX    TMP DP  RH WIND       PRES   REMARKS
GILLETTE       MOSUNNY   45  31  58 W10       30.27S
SHERIDAN       SUNNY     54  25  32 N13       30.26S
BUFFALO WY     SUNNY     49  30  48 E6        30.30R
CODY           SUNNY     45  27  49 CALM      30.35R
YELLOWSTONE LA   N/A     16  14  92 CALM      30.56F
IDAHO FALLS    CLOUDY    24  21  88 N10       30.60S FOG     WCI  14
SALMON         CLOUDY    12  10  92 CALM      30.64F
BOISE          CLOUDY    33  27  78 SE7       30.60S WCI  27
SPOKANE        MOSUNNY   36  31  82 NE9       30.41F WCI  29
$$

REGIONAL REPORTS...ALBERTA

CITY           SKY/WX    TMP DP  RH WIND       PRES   REMARKS
CALGARY        MOSUNNY   50  21  32 S7        30.15F
LETHBRIDGE     MOSUNNY   55  27  33 W6G17     30.18F
MEDICINE HAT   PTSUNNY   43  32  65 SW13      30.20S
WATERTON GATE    N/A     52  27  37 SW28G39     N/A
CARDSTON         N/A     61  18  18 SW5         N/A
MILK RIVER       N/A     52  28  40 NW2         N/A
$$

REGIONAL REPORTS...SASKATCHEWAN

CITY           SKY/WX    TMP DP  RH WIND       PRES   REMARKS
SWIFT CURRENT  SUNNY     45  30  57 W15       30.11F
REGINA         FLURRIES  28  23  80 S6        30.19F WCI  22
SASKATOON      FLURRIES  27  25  93 SE10      30.17F WCI  17
CYPRESS HILLS    N/A     46  25  42 NW8         N/A
VAL MARIE        N/A     45  28  53 SW6         N/A
ROCKGLEN         N/A     37  27  65 SW6         N/A
ASSINIBOIA       N/A     39  30  70 SW8         N/A
$$



USA.gov is the U.S. government's official web portal to all federal, state and local government web resources and services.